Probability
4 2 0 0 0 0 0 0 0 0 0 2 4 4 2 1 0 0 0 0 1 0 0 0 0 0 0 0 0 0 0 0 0 0 0 0 0 0 0 0 0 0 0 0 0 0 0 0 0
2 1 0 0 0 0 0 0 0 1 3 5 7 7 5 1 0 0 0 1 1 1 1 0 0 0 0 0 0 0 0 0 0 0 0 0 0 0 0 0 0 0 0 0 0 0 0 0 0
0 0 0 0 0 0 0 1 2 4 7 10 12 11 7 2 0 0 1 2 4 3 2 2 2 1 0 0 0 0 0 0 0 0 0 0 0 0 0 0 0 0 0 0 0 0 0 0 0
0 0 0 0 0 1 2 4 6 7 11 14 15 13 8 3 2 3 3 5 7 6 4 4 4 3 1 0 0 0 0 0 0 0 0 0 0 0 0 0 0 0 0 0 0 0 0 0 0
0 0 0 0 0 1 4 8 11 13 15 17 15 13 10 7 8 8 6 8 11 10 7 6 7 6 2 1 0 0 0 0 0 0 0 0 0 0 0 0 0 0 0 0 0 0 0 0 0
0 0 0 0 0 1 4 10 16 21 21 19 17 15 13 12 14 11 8 9 11 11 8 6 6 5 3 1 0 0 0 0 0 0 0 0 0 0 0 0 0 0 0 0 0 0 0 0 0
0 0 0 0 0 0 3 9 17 23 24 19 18 19 18 17 16 13 9 7 7 7 6 5 4 2 2 1 0 0 0 0 0 0 0 0 0 0 0 0 0 0 0 0 0 0 0 0 0
0 0 0 0 0 1 4 11 17 23 24 19 19 21 23 24 22 17 12 8 5 4 4 4 3 1 0 0 0 0 0 0 0 0 0 0 0 0 0 0 0 0 0 0 0 0 0 0 0
0 0 0 0 0 2 7 14 20 23 23 22 23 24 26 29 30 24 17 12 7 3 2 2 2 1 0 0 0 0 0 0 0 0 1 0 0 0 0 1 1 2 2 2 1 1 1 0 0
0 0 0 0 0 2 7 13 16 19 22 24 27 28 27 29 31 25 19 14 7 2 1 1 1 0 0 0 0 0 0 0 0 0 0 0 0 0 0 2 3 5 5 4 3 2 2 1 0
0 0 0 0 1 2 5 7 10 13 17 20 24 26 26 26 24 21 16 11 6 2 1 1 1 0 0 0 0 0 0 0 0 0 0 0 0 0 0 1 3 5 5 4 2 2 2 1 1
0 0 0 0 1 3 4 5 8 12 14 14 16 19 21 21 19 18 17 15 11 8 6 5 4 2 1 1 0 0 1 0 0 0 1 1 1 0 0 0 1 2 2 1 1 0 1 2 2
0 0 0 1 1 3 5 6 8 12 14 13 13 16 17 16 17 21 25 24 21 19 17 13 10 7 5 3 1 0 1 1 0 0 1 2 1 0 0 0 0 1 0 0 0 0 1 1 1
0 0 0 1 1 3 5 6 7 9 12 12 12 14 15 15 18 25 30 29 27 25 24 19 12 10 10 7 3 1 1 1 0 0 2 2 1 0 0 0 0 0 0 0 0 0 0 0 0
0 0 0 0 0 2 4 5 4 5 7 8 9 11 14 16 19 24 28 28 26 26 24 18 11 9 10 8 4 2 2 1 0 0 1 2 1 0 0 0 0 0 0 0 0 0 0 0 0
0 0 0 0 0 1 2 3 3 4 5 6 7 10 13 15 16 19 22 22 20 20 19 14 9 7 6 4 3 2 2 1 0 0 1 1 0 0 0 1 0 0 0 0 0 0 0 0 0
0 0 0 0 0 0 1 2 2 4 6 7 7 9 12 13 14 15 15 13 11 12 12 9 6 4 2 1 1 1 1 0 0 0 0 0 0 0 0 0 0 0 0 0 0 0 0 0 0
0 0 0 0 0 0 0 1 2 4 5 6 6 6 8 10 11 11 10 7 5 5 6 5 4 2 0 0 0 0 0 0 0 0 0 0 0 0 0 0 0 0 0 0 0 0 0 0 0
0 0 0 0 0 0 0 1 2 4 4 4 3 4 4 5 8 9 9 8 6 4 3 3 2 1 0 0 0 0 0 0 0 0 0 0 0 0 0 0 0 0 0 0 0 0 0 0 0
0 0 0 0 0 0 0 0 1 2 3 3 2 3 3 4 5 8 9 9 7 6 3 1 1 0 0 0 0 0 0 0 0 0 0 0 0 0 0 0 0 0 0 0 0 0 0 0 0
0 0 0 0 0 0 0 0 0 1 2 2 2 2 3 4 5 7 7 6 6 5 3 1 0 0 0 0 0 0 0 0 0 0 0 0 0 0 0 0 0 0 0 0 0 0 0 0 0
0 0 0 0 0 0 0 0 0 0 1 1 1 0 1 2 4 5 5 4 4 4 2 1 0 0 0 0 0 0 0 0 0 0 0 0 0 0 0 0 0 0 0 0 0 0 0 0 0
0 0 0 0 0 0 0 0 0 0 0 0 0 0 0 2 3 4 3 3 3 3 1 0 0 0 0 0 0 0 0 0 0 0 0 0 0 0 0 0 0 0 0 0 0 0 0 0 0
0 0 0 0 0 0 0 0 0 0 0 0 0 0 1 2 3 3 3 4 4 3 1 0 0 0 0 0 0 0 0 0 0 0 0 0 0 0 0 0 0 0 0 0 0 0 0 0 0
0 0 0 0 0 0 0 0 0 0 0 0 0 1 2 3 3 3 3 4 4 3 1 0 0 0 0 1 1 0 0 0 0 0 0 0 0 0 0 0 0 0 0 0 0 0 0 0 0
0 0 0 0 0 0 0 0 0 0 0 0 0 1 1 2 2 2 1 2 3 3 1 1 0 0 2 3 2 1 1 0 0 0 0 0 0 0 0 0 0 0 0 0 0 0 0 0 0
0 0 0 0 0 0 0 0 0 0 0 0 0 0 1 1 1 1 0 1 2 3 2 2 1 2 4 5 4 3 1 0 0 0 0 0 0 0 0 0 0 0 0 0 0 0 0 0 0
0 0 0 0 0 0 0 0 0 0 0 0 0 1 2 2 1 0 0 0 1 2 2 2 2 4 6 7 6 4 1 0 0 0 0 0 0 0 0 0 0 0 0 0 0 0 0 0 0
0 0 0 0 0 0 0 0 0 0 0 0 0 1 2 2 1 0 0 0 0 1 2 2 4 6 8 8 6 4 2 0 0 0 0 0 0 0 0 0 0 0 0 0 0 0 0 0 0
0 0 0 0 0 0 0 0 0 0 0 0 0 0 1 2 2 1 0 0 0 1 2 3 5 7 8 8 6 4 2 1 0 0 0 0 0 0 0 0 0 0 0 0 0 0 0 0 0
Wind_Speed
8 5 2 1 3 3 1 4 3 5 6 4 4 5 4 5 4 6 6 16 18 14 11 14 17 17 17 17 17 16 16 16 15 15 14 14 13 13 12 12 12 11 11 11 10 10 10 10 9
5 4 1 2 2 1 4 4 5 4 2 3 7 7 6 8 10 11 9 16 18 14 10 12 17 17 17 17 16 16 16 16 15 14 14 13 12 12 11 11 11 10 10 10 9 9 9 8 8
5 4 1 1 1 4 5 6 7 1 2 4 6 6 6 7 9 6 11 17 15 12 9 13 19 18 17 17 16 16 16 15 15 14 13 12 11 11 11 10 10 9 9 9 8 8 8 7 6
2 2 1 1 5 7 7 7 6 3 4 8 7 5 5 3 6 12 18 17 15 11 9 13 18 18 17 17 16 15 15 15 14 13 12 11 11 10 10 9 9 9 8 8 7 7 6 5 5
2 3 1 2 6 6 7 7 5 4 4 8 10 6 5 6 18 20 17 16 15 11 8 12 18 18 17 16 16 15 14 14 13 12 12 11 10 9 9 8 8 8 8 7 7 6 5 4 3
2 2 1 3 6 5 5 6 8 10 9 6 6 6 3 7 15 16 16 14 14 12 9 11 17 18 17 16 15 15 14 13 13 12 11 9 8 7 7 7 7 7 7 7 6 6 5 3 2
3 1 3 4 5 5 2 5 7 10 10 4 4 4 4 6 8 11 13 14 13 12 10 7 9 12 16 16 15 14 13 12 12 11 10 8 8 7 7 6 6 6 6 6 6 6 5 4 3
4 2 4 4 4 4 2 7 7 8 8 4 3 4 4 6 6 10 12 12 11 9 9 7 7 7 7 9 13 13 12 11 10 10 9 8 7 7 7 6 6 7 7 7 7 7 6 6 5
2 1 4 5 4 3 4 8 6 7 9 5 3 2 5 9 11 11 10 10 9 9 7 7 7 6 6 6 9 10 10 9 8 6 7 5 2 2 3 5 7 8 7 7 7 7 7 6 5
5 4 8 7 3 1 5 8 7 7 9 6 6 5 6 6 9 11 12 11 10 10 9 7 8 7 6 6 5 3 4 4 3 2 2 2 1 1 1 3 5 6 6 5 6 6 5 4 2
5 7 9 6 3 3 6 6 5 9 6 8 13 12 8 7 6 9 11 11 11 11 9 8 7 7 6 4 4 2 2 2 2 2 2 2 2 1 1 1 0 1 1 1 1 1 1 1 1
4 7 6 3 2 4 5 6 6 3 6 9 11 12 9 8 7 8 10 10 9 9 8 8 7 6 6 5 4 3 3 2 2 2 2 3 2 2 2 1 1 1 1 0 0 0 1 1 2
2 3 2 3 6 8 10 9 8 4 6 9 9 8 8 6 5 6 8 9 9 9 8 7 7 7 6 5 4 4 3 3 3 3 3 4 3 2 2 1 1 1 1 0 0 1 1 1 2
3 4 4 2 4 4 9 7 7 4 6 7 7 5 5 7 7 6 7 9 8 9 8 7 7 7 7 5 4 4 4 4 4 3 4 4 3 3 2 2 2 1 1 0 0 1 0 1 1
3 5 6 2 2 4 8 5 3 6 7 7 6 5 5 5 6 7 8 10 9 9 9 8 7 7 7 6 5 4 4 4 4 3 4 4 4 4 3 2 2 2 2 2 2 2 2 1 2
4 4 4 5 2 3 7 2 3 6 6 5 4 4 4 5 6 7 8 8 8 9 8 7 8 7 6 5 5 4 4 4 4 3 3 4 4 4 4 3 2 2 3 3 2 2 2 2 2
3 2 4 5 1 2 5 3 5 6 7 6 5 4 5 5 5 6 7 8 8 9 8 7 7 7 6 5 4 4 4 4 3 3 3 3 4 5 4 3 2 2 3 3 2 2 2 2 3
6 3 2 3 2 3 3 2 4 5 5 4 4 3 4 5 6 7 7 8 7 7 7 7 7 6 6 4 4 3 3 2 2 3 3 4 4 4 4 3 3 3 3 3 2 2 2 1 2
6 3 2 3 3 3 3 2 3 6 6 5 5 5 5 5 5 6 8 8 8 7 8 7 6 5 5 3 3 3 2 2 2 2 4 4 4 4 4 3 3 3 3 2 2 2 3 3 2
3 1 0 1 2 4 2 2 3 5 6 7 7 6 6 5 5 6 7 7 7 8 8 7 7 6 5 4 3 3 3 2 2 2 2 3 4 4 4 4 3 2 2 3 3 3 2 2 3
1 1 2 3 3 5 2 2 2 2 3 5 7 7 8 10 10 9 9 8 9 9 9 8 7 6 6 5 3 3 3 3 2 2 1 2 3 4 4 4 3 2 2 1 1 2 2 1 2
0 1 3 4 4 1 1 2 5 3 3 6 9 10 10 10 11 10 10 10 10 10 8 8 7 6 6 5 5 5 3 2 2 2 2 1 2 2 3 4 4 3 2 1 1 2 2 2 1
3 4 4 4 4 3 3 1 7 1 3 7 9 11 12 12 12 12 12 12 11 10 9 8 8 7 6 6 6 6 4 3 2 2 1 1 1 1 2 3 3 3 2 1 1 1 1 1 1
6 5 5 5 5 4 2 1 6 5 7 7 9 11 11 12 12 12 11 10 9 9 9 9 8 7 6 6 6 6 6 5 3 2 1 0 1 1 1 3 3 3 2 2 2 1 1 1 1
4 6 5 7 6 2 3 2 9 9 7 9 11 12 11 12 12 12 11 11 10 11 11 10 10 8 7 7 6 7 7 6 5 3 2 2 1 0 1 2 3 2 2 3 2 2 2 2 2
1 7 6 3 2 3 3 4 10 9 5 7 10 12 12 13 13 13 14 13 13 13 12 11 10 8 8 8 7 6 7 4 4 4 4 3 3 2 2 2 3 3 3 3 2 2 2 2 3
2 2 6 7 2 1 4 6 9 4 2 5 8 10 13 14 14 14 14 13 12 13 12 12 11 9 9 8 7 6 6 6 5 4 3 3 3 3 3 3 3 3 3 3 3 2 3 3 3
3 4 5 5 4 2 4 5 6 6 5 6 8 11 12 13 14 14 13 13 12 12 11 10 11 10 9 9 7 6 6 6 6 4 4 4 4 3 3 3 3 3 3 3 3 3 4 4 4
1 2 4 4 5 6 4 8 9 10 9 9 11 12 13 15 15 14 12 11 11 10 10 10 10 9 8 8 7 7 6 6 6 5 5 4 4 4 4 4 4 4 4 4 3 4 4 5 5
3 5 6 5 3 4 4 9 7 10 10 10 10 11 13 14 14 12 11 10 10 11 11 11 10 10 9 8 7 7 7 6 6 5 5 5 5 5 5 5 4 5 5 5 5 5 5 5 6
Wind_Direction
168 167 158 62 55 46 284 248 239 300 319 348 34 77 110 92 123 133 121 133 131 134 137 136 135 134 132 131 129 127 126 125 124 123 122 121 120 119 117 115 113 111 109 107 106 105 102 99 98
160 169 150 56 89 74 280 262 266 271 318 34 34 40 51 62 79 103 115 132 130 130 131 134 133 133 133 132 131 130 130 130 129 129 128 127 126 125 123 120 118 115 114 113 112 110 107 103 98
183 179 141 104 180 186 220 228 237 284 23 48 31 13 34 87 106 105 131 133 126 125 127 134 132 132 133 133 133 134 134 134 134 133 133 132 132 131 129 127 124 121 119 117 117 116 114 110 103
166 117 65 126 241 233 223 222 201 167 85 63 74 18 7 65 108 126 134 132 125 124 126 134 132 132 133 134 135 135 136 137 137 138 138 138 137 137 135 134 133 129 126 124 124 125 123 118 112
110 107 99 267 253 245 230 222 157 121 95 94 103 93 21 42 115 129 134 132 129 128 128 133 133 133 134 135 136 137 137 138 139 141 143 144 144 143 142 141 139 139 138 135 135 139 140 136 129
75 100 87 276 276 278 233 183 122 105 96 95 98 108 86 102 120 134 135 133 132 133 131 135 136 137 137 138 138 139 141 142 144 145 145 147 147 147 147 148 149 150 151 151 151 155 161 165 171
150 141 240 268 290 305 348 105 110 117 115 123 125 110 110 107 126 134 135 133 134 136 135 136 140 141 142 143 143 144 145 147 148 148 150 154 158 161 165 168 170 171 171 173 175 178 183 192 210
170 96 305 296 297 305 61 91 96 103 109 125 110 115 147 153 143 130 133 132 135 139 142 142 141 141 142 145 147 147 148 150 152 154 157 162 170 178 185 185 187 188 190 194 198 199 203 208 220
170 67 271 264 266 292 84 100 87 86 108 98 77 111 169 148 131 124 131 132 142 148 151 151 148 146 143 146 153 151 152 155 155 160 167 166 176 198 196 199 198 203 204 206 213 216 216 217 225
152 186 239 238 238 146 89 107 114 107 100 98 110 130 130 118 124 135 148 152 158 162 165 161 158 156 155 158 144 145 148 147 142 147 151 137 150 210 177 204 203 207 211 215 217 223 227 224 228
188 215 249 268 273 119 100 93 102 127 131 160 155 157 147 137 141 149 158 162 165 167 165 163 161 158 157 145 143 142 132 132 132 131 129 115 91 65 63 68 211 237 224 253 261 270 248 215 219
224 255 258 285 23 88 105 113 94 109 171 166 151 151 159 154 155 158 156 157 155 152 153 152 150 144 141 135 138 140 135 131 127 119 114 102 90 72 63 53 29 39 47 107 190 232 250 249 243
264 278 303 89 74 93 99 104 110 106 130 137 147 147 156 155 146 163 147 142 142 144 145 146 138 134 133 124 131 130 137 136 127 112 104 106 100 89 74 55 44 39 36 49 211 223 242 261 268
284 313 326 43 82 93 104 107 103 143 147 149 166 170 173 160 156 153 145 145 147 143 141 139 129 129 124 120 119 123 125 124 116 114 115 108 105 97 80 62 50 23 6 10 354 328 306 295 296
321 336 327 326 101 130 110 79 121 156 156 166 170 175 177 173 166 160 166 152 147 143 136 137 132 124 119 120 122 123 126 124 121 123 118 111 106 96 87 72 44 16 12 20 23 11 27 8 345
341 344 308 294 128 146 110 136 178 160 161 164 158 165 167 167 167 166 167 151 144 135 134 142 134 124 119 120 122 126 129 127 126 124 117 114 108 99 85 73 40 16 30 36 41 35 34 18 357
334 273 271 299 291 103 101 164 193 176 161 155 166 173 173 162 171 171 165 157 147 141 138 133 131 131 127 124 120 119 119 122 133 130 123 118 110 103 96 85 55 42 45 36 31 45 45 13 344
261 259 248 250 265 100 107 189 178 180 169 162 176 187 174 164 183 176 166 159 142 135 133 134 133 132 127 114 100 91 93 106 125 138 139 131 123 114 104 94 65 57 52 31 24 23 20 11 332
242 226 252 222 188 117 144 186 191 179 180 174 177 191 187 185 188 164 156 150 138 133 134 137 141 145 133 121 118 117 126 133 133 157 153 144 136 124 114 105 85 73 64 39 24 24 15 356 358
226 165 273 26 127 115 135 204 214 194 187 176 175 176 187 180 168 166 156 151 148 148 148 152 154 152 146 144 147 148 142 141 145 145 148 156 151 146 137 132 122 99 74 43 35 47 38 353 19
10 168 187 156 93 70 78 337 255 207 184 186 179 183 190 182 176 179 171 166 163 166 168 167 167 158 154 147 120 92 73 61 61 82 136 188 172 162 153 153 144 129 111 82 48 75 86 18 348
320 208 127 123 108 36 44 289 277 232 210 198 190 191 194 190 182 180 173 171 176 179 174 167 167 161 157 146 135 135 136 141 166 170 189 222 202 187 178 165 156 150 136 122 115 115 115 105 5
155 98 80 93 111 73 15 23 288 247 229 218 203 196 195 191 183 181 179 179 182 179 173 168 165 165 161 151 146 136 135 151 157 140 143 231 280 250 188 167 157 155 154 160 147 122 119 138 163
138 90 54 46 65 39 309 162 279 234 217 205 201 198 194 188 185 185 183 180 181 178 173 169 167 170 165 158 153 149 151 154 145 136 137 296 322 334 136 148 153 162 168 184 203 205 205 205 210
91 83 24 2 16 296 291 257 255 247 221 195 190 192 188 184 184 185 185 184 184 182 178 174 171 173 172 164 161 160 160 159 161 170 168 165 162 189 183 153 163 174 193 204 207 216 235 234 234
152 133 151 193 219 288 307 261 264 271 231 193 182 180 183 186 188 190 191 188 185 184 181 177 177 174 172 168 168 165 161 155 159 164 166 173 184 196 191 173 181 198 211 218 209 214 232 228 238
146 161 161 132 125 111 276 282 299 289 208 184 178 176 186 188 190 193 193 190 186 183 183 181 176 173 175 174 170 171 169 164 171 176 172 176 187 188 178 182 196 217 226 230 221 228 243 243 243
154 152 96 110 145 196 272 268 248 254 223 204 193 190 192 189 191 194 192 190 188 184 180 174 172 175 176 174 176 176 176 175 176 174 183 191 200 196 193 209 219 230 237 235 225 235 243 244 250
133 103 113 124 153 155 216 255 226 215 210 203 204 198 193 190 192 193 191 187 180 173 170 170 170 169 173 175 174 168 177 180 177 182 194 196 201 202 208 218 223 229 237 238 232 240 246 244 254
179 179 148 147 211 178 186 259 251 208 209 201 209 206 195 193 191 187 181 173 170 170 170 172 173 175 179 175 172 176 180 179 181 193 202 199 204 211 214 217 221 230 235 233 231 242 246 239 245